Weather in Vinogradovo

Russia / Moscow Oblast     55°25′34″N   38°33′27″E
temp.,
°C
wind,
m/s
gust,
m/s
humid.,
%
clouds,
%
prec.,
mm/h
press.,
hPa
HPBL,
m
1 august, sun
sun100:00+16wsw367229 0.0 1009105
03:00+15wsw367874 0.0 101095
06:00+16wsw2475100 0.0 101197
09:00+22ssw3455100 0.0 1011468
12:00+27sw4642100 0.0 10111250
15:00+25ssw3554100 0.4 1011869
18:00+21nw228498 3.1 100962
21:00+18e019331 4.9 101012
2 august, mon
mon200:00+18sse1190100 0.2 101011
03:00+18ssw1191100 0.2 101011
06:00+18ssw2293100 1.3 101051
09:00+23s357741 2.0 1009407
12:00+28ssw4649100 0.0 10081248
15:00+31ssw6124378 0.0 10052662
18:00+29ssw5114942 0.0 10031364
21:00+23sse377123 0.0 1003122
3 august, tue
tue300:00+21ssw61591100 3.7 1001583
03:00+19ssw41193100 6.9 1003525
06:00+17sw4109494 0.0 1004400
09:00+19sw4786100 0.0 1005769
12:00+19wsw4680100 0.1 1006730
15:00+20wnw577420 0.6 1008909
18:00+20wnw46628 0.0 10091080
21:00+16wsw368467 0.0 1010138
4 august, wed
wed400:00+14wsw24965 0.0 101277
03:00+13w369486 0.0 1013103
06:00+14w238633 0.0 101472
09:00+19w236697 0.0 1015518
12:00+23wsw234737 0.1 10151808
15:00+23w345417 0.6 10151458
18:00+22nw336038 0.3 10161030
21:00+17n238492 0.7 101736
5 august, thu
thu500:00+14nne22867 0.6 101812
03:00+13ne228531 0.6 101817
06:00+13ene228557 0.0 101955
09:00+19ese22624 0.0 1019409
12:00+23sse2249100 0.0 10181394
15:00+24s234992 0.0 10171625
18:00+23wsw1255100 0.0 1016594
21:00+17n4787100 0.3 1017160